Skip Page Navigation
NASA JPL Caltech
NASA Logo - Jet Propulsion Laboratory + View the NASA Portal
+ Center for Near-Earth Object Studies
JPL Home Earth Solar System Stars & Galaxies Technology
JPL Solar System Dynamics
BODIES ORBITS EPHEMERIDES TOOLS PHYSICAL DATA DISCOVERY FAQ SITE MAP
JPL Small-Body Database Browser
Search: [ help ]  
161922 (2007 EA57)
Classification: Outer Main-belt Asteroid          SPK-ID: 2161922
Ephemeris | Orbit Diagram | Orbital Elements | Mission Design | Physical Parameters | Discovery Circumstances | Close-Approach Data ]

[ hide orbit diagram ]

For accurate long-term ephemerides, please instead use our Horizons system.This orbit viewer was implemented using two-body methods, and hence should not be used for determining accurate long-term trajectories (over several years or decades) or planetary encounter circumstances.


[ revert to old Java-based viewer ]

Orbital Elements at Epoch 2459000.5 (2020-May-31.0) TDB
Reference: JPL 17 (heliocentric ecliptic J2000)
 Element Value Uncertainty (1-sigma)   Units 
e .07665743053918712 3.5305e-08  
a 3.232150531844985 3.2255e-08 au
q 2.984382176957881 1.1128e-07 au
i 15.09224641985939 6.3573e-06 deg
node 52.62205978665128 1.655e-05 deg
peri 74.17733442888877 4.8139e-05 deg
M 145.2761213704527 4.4198e-05 deg
tp 2458143.999676894208
(2018-Jan-25.49967689)
0.00025952 TDB
period 2122.44182601641
5.81
3.1771e-05
8.698e-08
d
yr
n .1696159562948684 2.539e-09 deg/d
Q 3.479918886732089 3.4727e-08 au
  Orbit Determination Parameters
   # obs. used (total)      630  
   data-arc span      8798 days (24.09 yr)  
   first obs. used      1996-05-14  
   last obs. used      2020-06-15  
   planetary ephem.      DE431  
   SB-pert. ephem.      SB431-N16  
   condition code      0  
   norm. resid. RMS      .53818  
   source      ORB  
   producer      Otto Matic  
   solution date      2020-Jun-24 03:11:03  

Additional Information
 Earth MOID = 2.04442 au 
 Jupiter MOID = 1.73758 au 
 T_jup = 3.127 
[ show covariance matrix ]

Ephemeris | Orbit Diagram | Orbital Elements | Mission Design | Physical Parameters | Discovery Circumstances | Close-Approach Data ]

Physical Parameter Table
Parameter Symbol Value Units Sigma Reference Notes
absolute magnitude H 14.7   n/a MPO436815  
diameter diameter 5.757 km 1.503 urn:nasa:pds:neowise_diameters_albedos::2.0[mainbelt] (http://adsabs.harvard.edu/abs/2011ApJ...741...68M)  
geometric albedo albedo 0.111   0.072 urn:nasa:pds:neowise_diameters_albedos::2.0[mainbelt] (http://adsabs.harvard.edu/abs/2011ApJ...741...68M)  

161922 (2007 EA57)          Discovered 2007-Mar-14 by Lowe, A. at Mayhill
Reference: 20070828/Numbers.arcLast Updated: 2007-08-30

[ show close-approach data ]
Ephemeris | Orbit Diagram | Orbital Elements | Mission Design | Physical Parameters | Discovery Circumstances | Close-Approach Data ]
ABOUT SSD CREDITS/AWARDS PRIVACY/COPYRIGHT GLOSSARY LINKS
FirstGov 2020-Aug-14 02:58 UT
(server date/time)  
NASA Home Page
Site Manager:   Ryan S. Park
Webmaster  Alan B. Chamberlin